When you browse on this site, cookies collect data to enhance your experience and personalize the content and advertising you see.
Visit our Privacy Policy to learn more. By continuing to use the site, you agree to this use of cookies and data.
EN

Hourly Weather Al Hilla

Today, 15 August, Saturday

Time Temperature Precipitation Wind Pressure Humidity
00:00 +36°C° 0 mm 6 mps 743 mmHg 15%
01:00 +36°C° 0 mm 6 mps 743 mmHg 15%
02:00 +35°C° 0 mm 6 mps 743 mmHg 15%
03:00 +34°C° 0 mm 7 mps 742 mmHg 16%
04:00 +34°C° 0 mm 6 mps 743 mmHg 17%
05:00 +33°C° 0 mm 6 mps 743 mmHg 19%
06:00 +33°C° 0 mm 6 mps 744 mmHg 21%
07:00 +35°C° 0 mm 7 mps 744 mmHg 20%
08:00 +38°C° 0 mm 7 mps 744 mmHg 19%
09:00 +40°C° 0 mm 8 mps 744 mmHg 18%
10:00 +43°C° 0 mm 8 mps 744 mmHg 15%
11:00 +45°C° 0 mm 8 mps 744 mmHg 13%
12:00 +46°C° 0 mm 8 mps 744 mmHg 10%
13:00 +48°C° 0 mm 8 mps 744 mmHg 9%
14:00 +49°C° 0 mm 7 mps 743 mmHg 8%
15:00 +49°C° 0 mm 7 mps 743 mmHg 7%
16:00 +48°C° 0 mm 6 mps 743 mmHg 7%
17:00 +47°C° 0 mm 6 mps 742 mmHg 7%
18:00 +46°C° 0 mm 5 mps 742 mmHg 7%
19:00 +43°C° 0 mm 5 mps 743 mmHg 9%
20:00 +41°C° 0 mm 5 mps 743 mmHg 11%
21:00 +39°C° 0 mm 6 mps 743 mmHg 13%
22:00 +37°C° 0 mm 5 mps 743 mmHg 13%
23:00 +37°C° 0 mm 5 mps 743 mmHg 14%

Tomorrow, 16 August, Sunday

Time Temperature Precipitation Wind Pressure Humidity
00:00 +36°C° 0 mm 5 mps 743 mmHg 14%
01:00 +35°C° 0 mm 5 mps 743 mmHg 15%
02:00 +34°C° 0 mm 4 mps 743 mmHg 17%
03:00 +33°C° 0 mm 4 mps 743 mmHg 18%
04:00 +33°C° 0 mm 4 mps 743 mmHg 19%
05:00 +32°C° 0 mm 4 mps 744 mmHg 20%
06:00 +32°C° 0 mm 4 mps 744 mmHg 21%
07:00 +34°C° 0 mm 5 mps 744 mmHg 18%
08:00 +37°C° 0 mm 5 mps 745 mmHg 16%
09:00 +40°C° 0 mm 6 mps 745 mmHg 13%
10:00 +43°C° 0 mm 7 mps 745 mmHg 12%
11:00 +45°C° 0 mm 7 mps 745 mmHg 11%
12:00 +47°C° 0 mm 7 mps 745 mmHg 10%
13:00 +47°C° 0 mm 7 mps 745 mmHg 9%
14:00 +49°C° 0 mm 8 mps 744 mmHg 8%
15:00 +50°C° 0 mm 8 mps 744 mmHg 8%
16:00 +49°C° 0 mm 7 mps 744 mmHg 8%
17:00 +47°C° 0 mm 6 mps 743 mmHg 8%
18:00 +47°C° 0 mm 5 mps 743 mmHg 8%
19:00 +43°C° 0 mm 4 mps 744 mmHg 10%
20:00 +41°C° 0 mm 4 mps 744 mmHg 11%
21:00 +37°C° 0 mm 4 mps 744 mmHg 12%
22:00 +37°C° 0 mm 4 mps 744 mmHg 13%
23:00 +36°C° 0 mm 4 mps 744 mmHg 13%

Day after tomorrow, 17 August, Monday

Time Temperature Precipitation Wind Pressure Humidity
00:00 +36°C° 0 mm 4 mps 744 mmHg 13%
01:00 +35°C° 0 mm 4 mps 744 mmHg 14%
02:00 +35°C° 0 mm 4 mps 744 mmHg 14%
03:00 +34°C° 0 mm 4 mps 744 mmHg 14%
04:00 +33°C° 0 mm 4 mps 745 mmHg 15%
05:00 +33°C° 0 mm 4 mps 745 mmHg 17%
06:00 +32°C° 0 mm 4 mps 745 mmHg 18%
07:00 +35°C° 0 mm 5 mps 746 mmHg 16%
08:00 +39°C° 0 mm 6 mps 746 mmHg 14%
09:00 +41°C° 0 mm 7 mps 746 mmHg 12%
10:00 +44°C° 0 mm 7 mps 746 mmHg 10%
11:00 +46°C° 0 mm 6 mps 746 mmHg 9%
12:00 +48°C° 0 mm 6 mps 746 mmHg 7%
13:00 +49°C° 0 mm 7 mps 745 mmHg 7%
14:00 +50°C° 0 mm 7 mps 745 mmHg 6%
15:00 +50°C° 0 mm 7 mps 744 mmHg 5%
16:00 +49°C° 0 mm 7 mps 744 mmHg 6%
17:00 +47°C° 0 mm 6 mps 744 mmHg 7%
18:00 +46°C° 0 mm 5 mps 744 mmHg 7%
19:00 +43°C° 0 mm 5 mps 744 mmHg 9%
20:00 +40°C° 0 mm 4 mps 745 mmHg 10%
21:00 +37°C° 0 mm 4 mps 745 mmHg 11%
22:00 +36°C° 0 mm 4 mps 745 mmHg 12%
23:00 +36°C° 0 mm 4 mps 745 mmHg 13%

18 August, Tuesday

Time Temperature Precipitation Wind Pressure Humidity
00:00 +35°C° 0 mm 4 mps 745 mmHg 13%
01:00 +34°C° 0 mm 4 mps 745 mmHg 14%
02:00 +34°C° 0 mm 4 mps 745 mmHg 15%
03:00 +33°C° 0 mm 4 mps 745 mmHg 16%
04:00 +33°C° 0 mm 4 mps 745 mmHg 17%
05:00 +32°C° 0 mm 5 mps 745 mmHg 19%
06:00 +32°C° 0 mm 5 mps 745 mmHg 21%
07:00 +35°C° 0 mm 6 mps 745 mmHg 18%
08:00 +39°C° 0 mm 7 mps 745 mmHg 15%
09:00 +43°C° 0 mm 7 mps 746 mmHg 12%
10:00 +44°C° 0 mm 8 mps 745 mmHg 10%
11:00 +47°C° 0 mm 9 mps 745 mmHg 9%
12:00 +49°C° 0 mm 9 mps 745 mmHg 8%
13:00 +49°C° 0 mm 9 mps 744 mmHg 7%
14:00 +50°C° 0 mm 9 mps 744 mmHg 7%
15:00 +50°C° 0 mm 9 mps 743 mmHg 7%
16:00 +49°C° 0 mm 8 mps 743 mmHg 7%
17:00 +47°C° 0 mm 7 mps 743 mmHg 8%
18:00 +46°C° 0 mm 6 mps 743 mmHg 8%
19:00 +44°C° 0 mm 6 mps 743 mmHg 10%
20:00 +40°C° 0 mm 5 mps 743 mmHg 12%
21:00 +37°C° 0 mm 5 mps 744 mmHg 13%
22:00 +36°C° 0 mm 4 mps 744 mmHg 14%
23:00 +36°C° 0 mm 4 mps 744 mmHg 15%

19 August, Wednesday

Time Temperature Precipitation Wind Pressure Humidity
00:00 +35°C° 0 mm 4 mps 743 mmHg 16%
01:00 +34°C° 0 mm 4 mps 743 mmHg 16%
02:00 +34°C° 0 mm 5 mps 743 mmHg 17%
03:00 +33°C° 0 mm 5 mps 743 mmHg 18%
04:00 +33°C° 0 mm 5 mps 743 mmHg 19%
05:00 +32°C° 0 mm 5 mps 744 mmHg 20%
06:00 +32°C° 0 mm 5 mps 744 mmHg 22%
07:00 +34°C° 0 mm 6 mps 744 mmHg 20%
08:00 +38°C° 0 mm 7 mps 744 mmHg 19%
09:00 +41°C° 0 mm 8 mps 745 mmHg 17%
10:00 +44°C° 0 mm 8 mps 744 mmHg 15%
11:00 +46°C° 0 mm 8 mps 744 mmHg 12%
12:00 +49°C° 0 mm 8 mps 744 mmHg 9%
13:00 +50°C° 0 mm 8 mps 744 mmHg 8%
14:00 +50°C° 0 mm 9 mps 743 mmHg 8%
15:00 +50°C° 0 mm 9 mps 743 mmHg 7%
16:00 +49°C° 0 mm 7 mps 743 mmHg 7%
17:00 +47°C° 0 mm 6 mps 743 mmHg 7%
18:00 +46°C° 0 mm 5 mps 743 mmHg 8%
19:00 +43°C° 0 mm 4 mps 743 mmHg 9%
20:00 +40°C° 0 mm 4 mps 743 mmHg 11%
21:00 +36°C° 0 mm 3 mps 744 mmHg 12%
22:00 +36°C° 0 mm 3 mps 744 mmHg 13%
23:00 +35°C° 0 mm 3 mps 743 mmHg 15%

20 August, Thursday

Time Temperature Precipitation Wind Pressure Humidity
00:00 +34°C° 0 mm 3 mps 743 mmHg 16%
01:00 +34°C° 0 mm 4 mps 743 mmHg 16%
02:00 +34°C° 0 mm 4 mps 743 mmHg 17%
03:00 +33°C° 0 mm 4 mps 743 mmHg 18%
04:00 +33°C° 0 mm 5 mps 743 mmHg 19%
05:00 +33°C° 0 mm 5 mps 744 mmHg 20%
06:00 +32°C° 0 mm 5 mps 744 mmHg 22%
07:00 +35°C° 0 mm 6 mps 744 mmHg 20%
08:00 +38°C° 0 mm 7 mps 744 mmHg 19%
09:00 +40°C° 0 mm 7 mps 745 mmHg 17%
10:00 +43°C° 0 mm 8 mps 744 mmHg 15%
11:00 +46°C° 0 mm 8 mps 744 mmHg 12%
12:00 +49°C° 0 mm 8 mps 744 mmHg 10%
13:00 +49°C° 0 mm 8 mps 744 mmHg 9%
14:00 +50°C° 0 mm 8 mps 743 mmHg 8%
15:00 +50°C° 0 mm 8 mps 743 mmHg 7%
16:00 +49°C° 0 mm 7 mps 743 mmHg 7%
17:00 +47°C° 0 mm 6 mps 742 mmHg 7%
18:00 +46°C° 0 mm 5 mps 742 mmHg 8%
19:00 +43°C° 0 mm 4 mps 742 mmHg 9%
20:00 +41°C° 0 mm 4 mps 743 mmHg 11%
21:00 +38°C° 0 mm 4 mps 743 mmHg 12%
22:00 +37°C° 0 mm 4 mps 743 mmHg 13%
23:00 +37°C° 0 mm 4 mps 743 mmHg 15%
Show more